[[{"header":{"parameterUnit":"m.s-1","parameterCategory":1,"la1":30.2991,"la2":30.254,"lo1":-89.0895,"lo2":-89.0444,"dy":0.0017,"dx":0.0017,"nx":28,"ny":28,"refTime":"2025-11-17T09:00:00:Z","depth":0,"parameterNumber":2,"parameterNumberName":"U-component_of_WINDS"},"data":[0,0,0,0,0,0,0,0,0,0,0,0,0,0,0,0,0,0,0,0,0,0,0,0,0,0,0,0,0,0,0,0,0,0,0,0,0,0,0,0,0,0,0,0,0,0,0,0,0,0,0,0,0,0,0,0,0,0,-1.1115,-1.1116,0,-1.1197,-1.1198,-1.1199,-1.1238,-1.1238,-1.1238,-1.1238,-1.1323,-1.1325,-1.1328,0,0,0,0,0,0,0,0,0,0,0,0,0,-1.0994,-1.0996,-1.1115,-1.1116,-1.1117,-1.1197,-1.1198,-1.1199,-1.1238,-1.1238,-1.1238,-1.1238,-1.1322,-1.1325,-1.1328,0,0,0,0,0,0,0,0,0,0,0,0,0,-1.1058,-1.0997,-1.1114,-1.1146,-1.1149,-1.1196,-1.1198,-1.1199,-1.1238,-1.1238,-1.1238,-1.1238,-1.1321,-1.1325,-1.1328,-1.1351,0,0,-1.1339,-1.134,0,0,0,0,0,0,0,0,-1.1054,-1.1063,-1.114,-1.1144,-1.1148,-1.1207,-1.1187,-1.125,-1.1238,-1.1204,-1.1238,-1.1238,-1.1285,-1.1291,-1.1307,-1.1355,-1.1358,-1.1339,-1.1341,-1.1343,-1.1344,0,0,0,0,0,0,0,-1.105,-1.1059,-1.1147,-1.1141,-1.1146,-1.1156,-1.1166,-1.1199,-1.1244,-1.1207,-1.121,-1.1219,-1.1287,-1.1303,-1.1309,-1.136,-1.1339,-1.1342,-1.1344,-1.1346,-1.1432,-1.1432,0,0,0,0,0,0,-1.104,-1.1055,-1.1145,-1.115,-1.11,-1.1159,-1.1169,-1.1188,-1.1244,-1.1252,-1.1219,-1.1221,-1.1297,-1.1305,-1.1312,-1.1343,-1.1343,-1.1346,-1.1348,-1.1432,-1.1432,-1.1432,0,0,0,0,0,0,-1.1037,-1.1048,-1.1141,-1.1103,-1.1116,-1.1161,-1.1182,-1.119,-1.1206,-1.1253,-1.1261,-1.1228,-1.1298,-1.1307,-1.1341,-1.1346,-1.1348,-1.1351,-1.1432,-1.1432,-1.1432,-1.1404,0,0,0,0,0,0,-1.1034,-1.1047,-1.1055,-1.1103,-1.1118,-1.1168,-1.1182,-1.1191,-1.1212,-1.1215,-1.1263,-1.1271,-1.1298,-1.1336,-1.1345,-1.1351,-1.1353,-1.1431,-1.1432,-1.1432,-1.1405,-1.1403,-1.1402,0,0,0,0,0,-1.1029,-1.1044,-1.1055,-1.1066,-1.1129,-1.1168,-1.1177,-1.1208,-1.1212,-1.1221,-1.1252,-1.1269,-1.1345,-1.1339,-1.1349,-1.1357,-1.1431,-1.1432,-1.1432,-1.1405,-1.1404,-1.1402,0,0,0,0,0,0,-1.0995,-1.105,-1.1064,-1.1094,-1.1126,-1.1175,-1.1187,-1.1205,-1.1237,-1.1238,-1.1276,-1.1286,-1.1317,-1.1341,-1.1333,-1.1383,-1.139,-1.1392,-1.1366,-1.1365,-1.1363,-1.1357,-1.1356,0,0,0,0,0,-1.0991,-1.1017,-1.1065,-1.1087,-1.1102,-1.1142,-1.116,-1.1181,-1.1216,-1.123,-1.1263,-1.1296,-1.1328,-1.1348,-1.1379,-1.1409,-1.142,-1.1419,-1.1418,-1.1417,-1.1419,-1.1437,-1.1438,-1.1434,-1.1434,-1.1434,0,0,-1.0983,-1.1016,-1.1031,-1.1081,-1.1108,-1.1135,-1.1153,-1.1181,-1.1202,-1.1234,-1.1268,-1.1294,-1.1334,-1.1366,-1.1382,-1.1387,-1.1422,-1.1417,-1.1416,-1.1419,-1.1438,-1.1438,-1.1438,-1.1434,-1.1434,-1.1434,0,0,-1.0982,-1.1009,-1.1031,-1.1059,-1.11,-1.1126,-1.1131,-1.1178,-1.1196,-1.1231,-1.1256,-1.1282,-1.1335,-1.1363,-1.1384,-1.1395,-1.1413,-1.1405,-1.1398,-1.1416,-1.1416,-1.1417,-1.1421,-1.1422,-1.1406,-1.1406,-1.1406,0,-1.0966,-1.1008,-1.104,-1.1067,-1.1089,-1.112,-1.1143,-1.1168,-1.1217,-1.1232,-1.1237,-1.1305,-1.1334,-1.1374,-1.1377,-1.1393,-1.1401,-1.1399,-1.1413,-1.1414,-1.1415,-1.142,-1.1421,-1.1405,-1.1405,-1.1405,-1.1405,0,-1.0987,-1.1016,-1.1029,-1.1075,-1.1099,-1.1124,-1.1161,-1.1181,-1.1201,-1.1227,-1.1263,-1.1299,-1.1339,-1.135,-1.1369,-1.1393,-1.1395,-1.1406,-1.1414,-1.1413,-1.1419,-1.1421,-1.1403,-1.1403,-1.1404,-1.1404,0,0,-1.0966,-1.1031,-1.1035,-1.1058,-1.1106,-1.1129,-1.1156,-1.1195,-1.1211,-1.1245,-1.1269,-1.1314,-1.1325,-1.1349,-1.1372,-1.1388,-1.1395,-1.1397,-1.1399,-1.1396,-1.1425,-1.1416,-1.1417,-1.1408,-1.1408,-1.1408,-1.1421,0,-1.0972,-1.102,-1.1051,-1.1088,-1.1115,-1.1146,-1.1169,-1.1202,-1.1228,-1.1256,-1.1285,-1.1316,-1.1328,-1.1343,-1.1359,-1.1391,-1.1401,-1.139,-1.1431,-1.1432,-1.142,-1.142,-1.141,-1.1421,-1.1423,-1.1424,-1.1424,0,-1.0985,-1.1018,-1.1057,-1.1103,-1.1116,-1.1136,-1.1175,-1.1201,-1.1239,-1.1257,-1.1284,-1.1308,-1.1339,-1.1344,-1.1388,-1.138,-1.1398,-1.1417,-1.1418,-1.1423,-1.1428,-1.1425,-1.1425,-1.1426,-1.1428,-1.1427,-1.1427,0,-1.0966,-1.102,-1.105,-1.1068,-1.1123,-1.1137,-1.116,-1.1199,-1.122,-1.1255,-1.1269,-1.1307,-1.1327,-1.1356,-1.139,-1.1391,-1.1431,-1.1439,-1.1447,-1.1446,-1.1453,-1.1452,-1.1456,-1.1465,-1.1465,-1.1465,-1.1465,0,-1.0969,-1.0992,-1.1043,-1.1061,-1.1088,-1.1124,-1.1151,-1.1177,-1.1211,-1.1236,-1.1265,-1.1289,-1.1332,-1.1361,-1.1387,-1.142,-1.1429,-1.1445,-1.1452,-1.1442,-1.144,-1.1455,-1.1455,-1.1466,-1.1466,-1.1466,-1.1466,0,-1.0952,-1.0987,-1.1022,-1.1072,-1.1085,-1.1102,-1.1145,-1.1165,-1.1193,-1.1224,-1.1234,-1.1278,-1.1313,-1.135,-1.1398,-1.1416,-1.1448,-1.1458,-1.1435,-1.1439,-1.1445,-1.1444,-1.1458,-1.1462,-1.1468,-1.1468,-1.1468,0,-1.0952,-1.097,-1.1022,-1.104,-1.1063,-1.1093,-1.1115,-1.1152,-1.1174,-1.122,-1.1235,-1.1273,-1.1305,-1.1361,-1.1398,-1.1435,-1.1446,-1.1448,-1.1452,-1.1442,-1.1446,-1.1445,-1.1447,-1.1447,-1.1447,-1.1446,-1.1446,0,-1.0948,-1.0965,-1.0995,-1.1032,-1.1058,-1.1089,-1.1122,-1.1136,-1.1179,-1.1203,-1.1239,-1.1264,-1.1314,-1.1352,-1.1394,-1.142,-1.144,-1.1445,-1.1449,-1.1439,-1.1426,-1.1434,-1.1432,-1.1444,-1.1445,-1.1445,-1.1445,-1.1445,-1.094,-1.0958,-1.0997,-1.1031,-1.1059,-1.1088,-1.111,-1.114,-1.1171,-1.1214,-1.1235,-1.1271,-1.1311,-1.137,-1.1395,-1.1426,-1.1431,-1.1437,-1.1438,-1.1439,-1.1437,-1.1421,-1.1433,-1.1434,-1.1434,-1.1434,-1.1434,0,-1.0938,-1.0965,-1.0995,-1.1039,-1.1066,-1.1083,-1.112,-1.1142,-1.1174,-1.1208,-1.124,-1.1283,-1.132,-1.136,-1.1399,-1.1416,-1.1427,-1.1425,-1.1424,-1.143,-1.1429,-1.1422,-1.1416,-1.1416,-1.1416,-1.1416,-1.1416,-1.1416,-1.094,-1.0972,-1.0993,-1.1039,-1.1066,-1.1102,-1.1122,-1.115,-1.1178,-1.1224,-1.1255,-1.1281,-1.1318,-1.1361,-1.1396,-1.1407,-1.1421,-1.1416,-1.143,-1.1429,-1.143,-1.1431,-1.1425,-1.1419,-1.1419,-1.1429,-1.1429,-1.1429]},{"header":{"parameterUnit":"m.s-1","parameterCategory":1,"la1":30.2991,"la2":30.254,"lo1":-89.0895,"lo2":-89.0444,"dy":0.0017,"dx":0.0017,"nx":28,"ny":28,"refTime":"2025-11-17T09:00:00:Z","depth":0,"parameterNumber":3,"parameterNumberName":"V-component_of_WINDS"},"data":[0,0,0,0,0,0,0,0,0,0,0,0,0,0,0,0,0,0,0,0,0,0,0,0,0,0,0,0,0,0,0,0,0,0,0,0,0,0,0,0,0,0,0,0,0,0,0,0,0,0,0,0,0,0,0,0,0,0,2.4135,2.4135,0,2.4172,2.4172,2.4173,2.4153,2.4152,2.4151,2.415,2.4187,2.4189,2.4191,0,0,0,0,0,0,0,0,0,0,0,0,0,2.4049,2.405,2.4135,2.4135,2.4136,2.4172,2.4172,2.4173,2.4153,2.4152,2.4151,2.415,2.4187,2.4189,2.4191,0,0,0,0,0,0,0,0,0,0,0,0,0,2.4086,2.4051,2.4135,2.4131,2.413,2.4172,2.4172,2.4173,2.4153,2.4152,2.415,2.4149,2.4186,2.4189,2.4192,2.4239,0,0,2.42,2.4202,0,0,0,0,0,0,0,0,2.4084,2.4089,2.4131,2.4131,2.4131,2.4156,2.4155,2.4195,2.4154,2.4145,2.415,2.4148,2.4178,2.4182,2.4192,2.4241,2.4243,2.4201,2.4202,2.4204,2.4204,0,0,0,0,0,0,0,2.4081,2.4087,2.415,2.4131,2.4132,2.4127,2.4131,2.4163,2.4169,2.4145,2.4144,2.4149,2.4178,2.4189,2.4193,2.4243,2.4201,2.4203,2.4205,2.4206,2.4335,2.4337,0,0,0,0,0,0,2.4079,2.4085,2.4148,2.4151,2.4103,2.413,2.4134,2.415,2.4169,2.417,2.415,2.4148,2.4185,2.4189,2.4194,2.4252,2.4204,2.4206,2.4208,2.4333,2.4335,2.4337,0,0,0,0,0,0,2.4077,2.4085,2.4147,2.4118,2.4125,2.4133,2.4151,2.4151,2.4162,2.4172,2.4173,2.416,2.4184,2.419,2.4229,2.4253,2.4208,2.421,2.4331,2.4334,2.4336,2.4369,0,0,0,0,0,0,2.4075,2.4084,2.4102,2.4118,2.4127,2.4181,2.4152,2.4153,2.4167,2.4165,2.4182,2.4184,2.4183,2.4224,2.4231,2.4256,2.4213,2.4329,2.4332,2.4335,2.4366,2.4372,2.4378,0,0,0,0,0,2.4072,2.4109,2.4103,2.4111,2.4149,2.4182,2.4187,2.4186,2.4169,2.4188,2.4195,2.4183,2.4249,2.4228,2.4236,2.4263,2.4328,2.4332,2.4335,2.4363,2.4371,2.4378,0,0,0,0,0,0,2.4096,2.4111,2.4105,2.4149,2.4164,2.4179,2.4202,2.4194,2.4215,2.4212,2.4209,2.4214,2.4254,2.4262,2.4239,2.4311,2.4286,2.4291,2.4304,2.4312,2.4318,2.4316,2.4215,0,0,0,0,0,2.4106,2.4131,2.4144,2.4181,2.419,2.4195,2.4209,2.4207,2.4223,2.4229,2.4239,2.4255,2.428,2.4296,2.4319,2.4366,2.4371,2.4388,2.4394,2.4399,2.4405,2.4432,2.4441,2.435,2.435,2.435,0,0,2.4128,2.4139,2.4156,2.4186,2.4198,2.4225,2.42,2.4229,2.425,2.4234,2.4272,2.4279,2.4297,2.4341,2.4361,2.4349,2.4431,2.4404,2.4408,2.4411,2.4437,2.4446,2.4453,2.4352,2.4352,2.4351,0,0,2.4182,2.4192,2.4226,2.4239,2.4257,2.426,2.4268,2.4285,2.4289,2.4327,2.4316,2.434,2.4382,2.4396,2.4409,2.4469,2.446,2.4476,2.4509,2.4536,2.4543,2.4549,2.4573,2.4581,2.4481,2.4481,2.4481,0,2.4206,2.4246,2.4244,2.4275,2.4289,2.4276,2.4311,2.4323,2.4348,2.4359,2.4345,2.4398,2.4409,2.4457,2.4472,2.4482,2.4492,2.4475,2.4542,2.4548,2.4554,2.4577,2.4585,2.4483,2.4483,2.4483,2.4483,0,2.4277,2.4305,2.433,2.4355,2.4372,2.4405,2.4408,2.4425,2.4421,2.4426,2.4466,2.4479,2.4505,2.4516,2.4512,2.4564,2.4556,2.4542,2.4517,2.4565,2.4586,2.4594,2.4486,2.4485,2.4485,2.4484,0,0,2.4348,2.4372,2.4381,2.4393,2.4413,2.4435,2.4467,2.4493,2.4509,2.4527,2.4555,2.4591,2.4579,2.4593,2.459,2.4614,2.4663,2.4597,2.4598,2.4611,2.4723,2.4735,2.4745,2.4657,2.4658,2.466,2.4722,0,2.4404,2.4461,2.446,2.4512,2.4539,2.4528,2.4556,2.4571,2.4577,2.4601,2.4606,2.4633,2.4614,2.4623,2.4645,2.4653,2.4686,2.4648,2.4684,2.4685,2.4682,2.4756,2.4768,2.4827,2.473,2.4732,2.4733,0,2.4478,2.45,2.4555,2.4573,2.4584,2.4609,2.4634,2.4656,2.4674,2.4676,2.4693,2.4687,2.4721,2.4694,2.4741,2.4715,2.4729,2.4735,2.4738,2.4742,2.4713,2.4764,2.4845,2.4855,2.4745,2.4744,2.4743,0,2.4527,2.4569,2.4608,2.4619,2.4639,2.4658,2.4667,2.4684,2.47,2.4721,2.4732,2.4757,2.4771,2.479,2.4792,2.4772,2.484,2.4813,2.4844,2.4844,2.486,2.4859,2.4946,2.4866,2.4866,2.4866,2.4866,0,2.4592,2.4627,2.4631,2.4655,2.4694,2.4692,2.4731,2.4739,2.4754,2.478,2.4771,2.4795,2.4795,2.4821,2.4822,2.4862,2.4867,2.4871,2.4872,2.4873,2.4873,2.4884,2.4881,2.4868,2.4868,2.4867,2.4867,0,2.4653,2.4657,2.47,2.4716,2.4721,2.4749,2.4763,2.4787,2.4791,2.4825,2.4832,2.484,2.487,2.4873,2.4907,2.4908,2.4956,2.4951,2.4951,2.4951,2.4982,2.498,2.5081,2.5095,2.5004,2.5005,2.5005,0,2.4696,2.4722,2.4742,2.4759,2.477,2.4797,2.4813,2.4813,2.4831,2.4854,2.4875,2.4904,2.4927,2.4975,2.4983,2.501,2.5007,2.504,2.501,2.5012,2.501,2.5009,2.5013,2.5046,2.5047,2.5048,2.5049,0,2.4771,2.4771,2.4796,2.4822,2.4842,2.4862,2.4881,2.4895,2.4897,2.4918,2.4948,2.4966,2.5002,2.5031,2.5057,2.5067,2.5059,2.5058,2.5067,2.507,2.507,2.5073,2.4969,2.5056,2.5055,2.5055,2.5054,2.5054,2.4825,2.4849,2.4867,2.4895,2.4909,2.4928,2.4951,2.4959,2.4984,2.5013,2.5011,2.5045,2.5063,2.5098,2.511,2.5137,2.5126,2.5138,2.5142,2.5146,2.515,2.5064,2.5141,2.5141,2.5141,2.5141,2.5141,0,2.4902,2.4913,2.4939,2.4966,2.4988,2.4978,2.4998,2.5018,2.5048,2.5066,2.5089,2.5125,2.5153,2.5164,2.5192,2.5212,2.5209,2.5219,2.5219,2.5222,2.5157,2.5148,2.5221,2.5221,2.5221,2.5221,2.5221,2.5221,2.4945,2.4986,2.4989,2.5037,2.5047,2.5081,2.5094,2.5111,2.5125,2.5165,2.5189,2.5196,2.5211,2.524,2.5267,2.5269,2.5281,2.5293,2.5295,2.5234,2.5226,2.5219,2.521,2.5295,2.5296,2.5358,2.5358,2.5359]}]]